Wetbulb
59.55 59.83 60.15 60.27 60.26 60.51 60.76 60.84 60.80 60.80 60.94 60.96 60.91 60.64 60.64 60.56 59.53 57.04 50.71 56.50 56.78 64.13 60.56 53.21 51.51 50.94 50.53 48.85 48.43 44.33 37.64 34.66 37.22 37.33 39.00 42.91 42.14 43.97 43.18 41.93 42.45 45.22 44.55 44.67 48.33
59.09 59.46 59.90 60.21 60.30 60.43 60.63 60.83 60.77 60.82 61.11 61.17 60.98 60.70 60.48 60.25 54.71 51.73 60.10 65.06 65.36 64.79 52.91 49.93 47.75 48.90 46.15 46.98 46.78 41.49 35.92 38.11 41.21 40.25 39.69 43.04 41.37 41.78 41.78 42.01 40.99 41.49 45.28 45.68 47.37
59.19 59.51 59.85 60.07 60.22 60.36 60.71 60.88 61.02 60.99 61.18 61.19 60.78 60.59 60.37 58.64 48.83 49.70 61.47 64.93 64.98 61.35 53.69 51.91 50.28 48.67 43.81 44.96 44.06 42.16 38.26 41.48 43.78 43.97 43.51 43.56 43.41 42.67 40.49 41.45 43.70 42.82 44.31 45.87 44.52
59.79 59.71 59.78 59.85 59.99 60.29 60.68 61.06 61.13 61.20 61.17 60.82 60.48 60.31 59.89 54.15 38.29 52.35 61.99 63.99 64.13 55.66 52.36 50.08 47.56 44.24 41.88 41.41 45.39 39.91 44.78 44.49 45.93 45.66 43.61 42.00 44.45 43.27 42.90 44.87 46.80 45.40 44.25 44.47 43.47
59.61 59.55 59.61 59.71 59.79 60.20 60.73 61.20 61.34 61.31 61.08 60.28 59.66 59.65 53.98 46.19 47.08 57.91 62.40 62.54 55.11 53.09 49.44 48.24 45.85 44.84 40.89 41.90 42.42 41.15 42.55 45.04 46.29 44.99 43.62 43.87 43.01 42.00 43.71 45.69 45.73 44.72 43.39 42.06 41.82
59.64 59.41 59.27 59.36 59.76 60.25 60.74 61.09 61.37 61.14 60.06 58.77 58.84 58.80 49.13 42.32 55.51 59.09 57.11 54.50 52.97 51.14 48.62 48.69 46.66 46.76 43.30 42.01 41.10 42.46 43.11 43.41 43.85 43.95 43.10 42.70 40.39 41.39 44.75 42.98 43.63 44.01 41.14 40.32 40.66
59.73 59.42 59.11 59.13 59.66 60.23 60.71 60.96 61.00 60.72 58.23 58.81 58.47 56.50 49.17 46.73 56.13 57.06 55.42 52.46 51.99 50.81 48.49 49.09 48.40 45.69 44.12 41.28 44.20 42.11 39.80 41.21 41.28 41.63 41.63 42.46 38.97 40.50 45.18 43.27 42.21 39.76 38.17 39.73 40.06
59.49 59.06 58.83 58.99 59.48 60.01 60.37 60.45 60.35 59.53 58.61 58.40 58.24 52.28 43.65 50.02 52.66 55.20 52.75 50.63 51.84 50.59 49.63 48.75 48.82 46.90 43.79 43.80 42.40 37.91 36.29 34.05 40.74 41.38 40.70 40.10 36.45 42.88 44.31 42.01 40.00 37.38 36.50 38.16 38.99
58.86 58.49 58.73 59.03 59.30 59.45 59.72 59.94 59.34 57.12 57.94 58.97 52.12 47.64 43.37 52.64 48.63 49.58 49.71 49.12 48.69 48.29 47.67 50.74 47.49 43.25 42.35 37.20 34.12 33.91 30.96 32.93 37.77 41.57 40.28 38.35 35.91 42.28 44.05 41.76 37.82 36.16 37.13 37.87 37.52
58.57 58.50 58.84 59.27 59.36 59.53 59.75 58.22 56.82 55.87 56.55 56.55 54.51 44.02 45.06 43.91 47.15 48.23 47.39 49.50 46.77 45.48 44.86 44.28 41.14 37.34 35.73 34.06 28.75 31.73 31.11 33.69 34.16 38.51 38.06 36.42 36.99 40.16 42.88 40.84 37.09 36.09 36.25 36.17 36.29
58.60 58.84 59.35 59.67 59.93 60.18 58.18 52.47 49.59 48.07 49.60 46.59 44.85 43.54 45.36 47.00 48.69 46.54 47.81 46.91 46.04 42.86 36.72 39.38 35.45 32.77 35.82 37.84 36.18 34.57 33.51 33.24 35.75 40.32 37.18 37.47 36.52 39.40 41.94 38.13 35.96 35.99 36.44 36.20 36.21
58.87 59.45 60.28 60.19 59.99 59.68 55.55 49.11 47.27 47.75 44.98 50.10 49.38 49.23 48.19 47.79 44.56 45.05 47.70 42.57 41.34 37.16 38.65 36.03 32.90 38.77 38.74 38.02 37.24 35.15 33.20 33.51 36.49 39.43 36.90 36.35 36.52 39.50 39.52 39.55 37.74 36.76 35.84 35.74 35.57
59.08 59.58 60.35 59.74 59.14 56.51 51.66 48.77 50.04 47.37 42.72 46.46 48.05 48.10 46.42 47.27 44.39 44.03 45.40 42.37 39.17 36.74 37.04 34.81 38.83 40.97 39.19 36.99 36.03 34.41 33.43 33.02 34.88 36.59 36.08 33.53 32.79 37.10 36.46 36.93 37.58 37.13 36.78 36.13 34.63
59.35 59.29 59.66 58.98 54.79 54.48 49.83 50.39 50.56 47.48 37.03 41.14 43.51 43.21 44.43 45.69 41.19 44.22 44.97 42.39 38.83 37.29 36.45 35.79 40.13 39.18 36.72 36.90 37.40 33.32 38.33 37.57 35.70 31.90 28.78 33.13 25.59 32.60 35.74 33.87 34.56 34.39 33.58 33.54 33.65
59.02 59.05 58.84 58.63 53.94 52.82 51.29 50.60 49.65 45.87 29.17 41.63 40.85 46.91 43.64 42.74 41.43 40.51 43.45 41.34 37.76 38.14 37.33 36.49 35.92 34.99 35.70 37.12 38.51 36.24 36.37 34.58 33.08 30.36 27.89 29.15 26.65 30.39 33.61 31.05 32.31 32.33 33.23 33.08 33.25
58.26 58.43 58.27 57.89 54.60 53.81 50.86 50.53 48.22 38.87 31.02 37.54 40.02 39.47 38.07 38.91 39.25 40.41 40.03 40.64 40.10 36.83 36.03 36.91 37.69 37.71 37.59 37.33 36.98 37.40 34.94 33.81 31.76 29.77 23.64 29.46 29.00 27.78 30.47 33.15 32.03 32.93 33.08 33.58 33.07
57.93 57.74 57.27 57.41 53.29 52.22 51.75 50.14 39.23 33.70 41.81 36.67 36.30 38.58 37.47 35.93 36.40 37.55 35.48 33.78 33.77 30.90 30.65 34.71 35.54 37.24 38.22 34.99 35.08 34.31 32.05 25.92 23.99 21.73 23.62 29.95 26.74 30.89 32.86 33.58 35.06 32.75 32.07 32.63 32.40
57.66 57.48 56.28 56.36 53.02 52.96 52.50 45.44 33.37 40.08 38.15 40.10 37.94 36.90 35.31 37.00 35.95 36.08 34.47 32.88 35.80 34.59 31.28 31.80 30.85 35.68 37.49 36.84 34.77 32.70 33.60 28.25 23.56 20.23 23.41 28.15 26.13 31.40 31.59 32.72 33.92 33.83 32.77 32.92 33.93
57.11 56.35 55.07 54.53 53.48 54.67 48.91 37.31 38.16 40.76 43.28 40.27 39.73 36.46 36.65 36.53 37.48 33.94 33.10 33.42 37.40 36.73 34.38 30.89 32.23 35.87 36.55 36.92 38.43 33.19 30.70 34.71 29.27 21.24 20.92 27.36 29.36 31.08 32.26 30.87 31.37 31.20 31.77 31.41 31.91
52.38 51.37 52.54 53.74 55.01 53.22 45.15 39.69 40.73 44.53 42.72 41.44 36.31 38.44 33.41 36.09 37.11 33.97 34.72 36.93 37.62 38.98 38.90 35.98 30.44 35.68 35.28 37.06 36.33 34.53 37.56 28.72 28.11 19.16 15.88 23.75 25.47 27.63 29.14 29.04 30.05 29.75 29.80 30.35 30.68
48.56 45.24 50.25 54.59 54.72 47.93 39.89 39.27 42.74 44.70 44.15 40.20 37.39 36.38 35.22 34.52 37.20 34.59 35.52 37.45 38.61 36.36 38.65 37.34 35.19 32.00 34.37 33.26 33.11 31.78 30.80 32.61 32.04 26.84 19.35 15.83 22.92 30.93 32.22 31.56 30.08 29.50 30.42 29.99 30.04
47.19 41.52 50.25 53.33 43.71 43.32 40.24 42.18 43.51 42.53 43.27 41.72 40.14 38.63 36.26 36.75 35.22 35.41 35.50 37.85 40.20 38.84 35.85 36.90 33.63 25.58 31.16 34.39 35.85 34.28 32.78 32.09 25.99 23.53 25.34 25.24 25.99 33.53 33.59 32.81 31.57 30.35 31.09 31.09 31.69
44.03 43.12 50.45 50.13 38.38 37.89 41.07 41.33 42.31 40.77 40.24 39.96 39.37 39.95 39.84 37.57 35.15 35.93 36.33 38.94 40.13 38.80 36.81 38.00 30.43 19.92 26.02 29.80 33.91 31.32 32.30 32.02 31.56 28.63 21.34 22.25 24.30 32.30 29.98 30.67 31.64 30.80 30.21 31.01 30.57
42.59 36.92 43.02 45.81 42.98 40.39 39.01 38.80 39.03 42.60 40.28 41.13 39.70 39.60 37.56 35.21 37.54 33.55 34.65 37.49 38.74 40.38 42.26 41.76 33.42 28.70 26.47 25.81 29.73 27.40 28.53 29.23 29.77 24.23 22.72 24.43 26.14 29.30 29.79 30.74 31.16 31.03 31.18 29.96 29.61
41.00 37.83 40.70 35.13 37.93 39.39 40.27 39.18 37.92 36.65 41.44 40.83 37.67 37.52 36.74 33.38 33.94 33.58 35.31 35.96 37.02 39.87 37.38 37.08 27.86 30.34 30.41 30.63 29.89 29.20 28.59 28.06 26.77 27.01 22.74 26.23 24.45 28.91 29.09 28.70 28.68 29.27 29.47 30.04 27.96
37.17 35.15 37.31 37.44 39.59 38.28 38.41 36.13 35.31 37.86 37.67 36.51 36.42 36.98 36.82 35.00 34.58 31.62 35.19 34.30 34.45 35.58 34.87 33.88 25.30 25.94 19.56 27.92 27.77 24.64 26.58 26.51 27.28 27.13 26.18 27.13 26.24 32.90 28.81 25.84 25.50 27.19 26.95 26.96 27.35
38.07 37.92 37.21 36.23 35.75 35.69 35.08 36.13 36.27 37.54 37.01 36.68 37.51 36.28 34.99 36.82 34.91 33.50 34.13 33.75 33.12 31.15 29.10 28.86 24.92 18.41 14.84 23.05 21.47 13.57 19.68 24.54 25.90 26.04 24.49 20.18 23.85 21.21 24.45 26.15 24.96 24.58 25.37 25.57 25.10
MSLP
1020.36 1020.27 1020.21 1020.06 1019.96 1019.87 1019.78 1019.66 1019.54 1019.40 1019.15 1018.91 1018.67 1018.48 1018.17 1017.89 1017.43 1017.30 1016.52 1015.35 1015.28 1015.49 1015.71 1015.81 1015.83 1015.91 1016.04 1016.41 1016.65 1017.15 1018.38 1018.23 1017.20 1016.48 1016.01 1015.52 1015.46 1015.15 1015.11 1015.12 1015.02 1014.76 1014.77 1014.76 1014.70
1020.42 1020.33 1020.26 1020.18 1020.06 1019.98 1019.82 1019.67 1019.50 1019.35 1019.12 1018.89 1018.61 1018.46 1018.18 1017.96 1017.68 1016.77 1015.53 1015.30 1015.23 1015.43 1015.76 1016.05 1016.25 1016.31 1016.72 1016.96 1017.20 1017.78 1018.52 1017.71 1016.79 1016.41 1016.26 1015.99 1016.03 1015.97 1015.78 1015.66 1015.23 1015.22 1015.03 1014.93 1015.04
1020.38 1020.36 1020.25 1020.16 1020.09 1020.01 1019.90 1019.70 1019.53 1019.32 1019.07 1018.83 1018.59 1018.37 1018.21 1018.04 1017.56 1016.03 1015.50 1015.49 1015.52 1015.62 1015.79 1015.97 1016.13 1016.44 1016.82 1017.02 1017.28 1017.75 1017.94 1017.31 1016.65 1016.42 1016.28 1016.09 1016.00 1016.09 1016.15 1016.13 1015.44 1015.79 1015.63 1015.56 1015.54
1020.26 1020.25 1020.18 1020.09 1020.03 1019.92 1019.77 1019.61 1019.40 1019.20 1018.97 1018.72 1018.47 1018.21 1017.99 1017.98 1017.23 1015.76 1015.58 1015.64 1015.71 1015.79 1015.89 1016.00 1016.30 1016.70 1016.98 1017.14 1017.07 1017.60 1017.12 1016.93 1016.42 1016.26 1016.41 1016.44 1016.25 1016.23 1016.29 1015.80 1015.44 1015.76 1016.29 1016.18 1016.48
1020.14 1020.09 1020.07 1020.02 1019.88 1019.73 1019.59 1019.42 1019.19 1018.99 1018.76 1018.58 1018.37 1018.20 1017.87 1017.64 1016.36 1015.59 1015.53 1015.66 1015.88 1016.02 1016.12 1016.22 1016.44 1016.69 1016.98 1017.05 1017.15 1017.31 1017.14 1016.84 1016.48 1016.30 1016.40 1016.30 1016.26 1016.53 1016.01 1015.48 1015.78 1016.07 1016.61 1017.33 1017.98
1019.95 1019.97 1019.91 1019.82 1019.74 1019.53 1019.40 1019.18 1019.00 1018.84 1018.57 1018.40 1018.31 1018.30 1018.09 1017.32 1015.55 1015.56 1015.72 1015.88 1015.93 1016.06 1016.17 1016.34 1016.47 1016.58 1016.91 1017.12 1017.30 1017.30 1017.21 1017.02 1016.63 1016.24 1016.29 1016.29 1016.31 1016.37 1015.26 1015.46 1016.19 1016.97 1018.03 1018.83 1019.22
1019.61 1019.74 1019.76 1019.66 1019.54 1019.35 1019.18 1018.92 1018.69 1018.56 1018.39 1018.24 1018.18 1018.31 1017.94 1016.56 1015.79 1015.81 1015.80 1015.90 1015.97 1016.08 1016.26 1016.38 1016.37 1016.63 1017.11 1017.26 1017.26 1017.44 1017.57 1017.27 1016.47 1016.24 1016.36 1016.26 1016.53 1016.18 1015.18 1015.60 1017.00 1018.11 1019.07 1019.54 1019.96
1019.43 1019.43 1019.51 1019.44 1019.35 1019.16 1018.96 1018.68 1018.39 1018.29 1018.22 1018.15 1018.13 1018.13 1017.15 1016.07 1016.07 1016.00 1015.93 1016.12 1016.12 1016.16 1016.30 1016.38 1016.38 1016.83 1017.24 1017.54 1017.70 1017.99 1018.17 1018.00 1016.69 1016.39 1016.39 1016.43 1016.39 1015.68 1015.33 1016.05 1017.91 1018.83 1019.75 1020.08 1020.38
1019.11 1019.15 1019.19 1019.17 1019.09 1018.89 1018.75 1018.40 1018.04 1018.13 1018.17 1018.20 1018.40 1017.92 1016.86 1015.99 1016.10 1016.21 1016.20 1016.38 1016.48 1016.63 1016.61 1016.56 1016.66 1017.41 1017.94 1018.52 1018.95 1018.79 1018.56 1018.31 1017.23 1016.33 1016.50 1016.66 1016.79 1015.81 1015.26 1016.65 1018.42 1019.56 1020.53 1020.99 1021.50
1018.69 1018.86 1018.88 1018.82 1018.77 1018.66 1018.47 1018.17 1017.96 1018.06 1018.29 1018.31 1018.13 1018.20 1016.71 1016.22 1016.22 1016.28 1016.33 1016.55 1016.93 1017.17 1017.35 1017.41 1017.89 1018.44 1019.01 1019.31 1019.41 1018.99 1018.96 1018.37 1017.63 1016.84 1016.77 1017.02 1016.75 1016.53 1015.93 1017.41 1018.78 1020.12 1021.08 1021.58 1021.76
1018.33 1018.44 1018.54 1018.53 1018.53 1018.49 1018.39 1018.38 1018.60 1018.49 1018.19 1017.11 1016.82 1016.56 1016.21 1016.52 1016.39 1016.51 1016.52 1016.72 1017.20 1017.72 1018.16 1018.43 1018.98 1018.92 1018.50 1018.47 1018.36 1018.42 1018.55 1018.34 1017.50 1016.82 1017.18 1016.85 1016.84 1016.60 1016.37 1017.92 1019.18 1020.29 1021.18 1022.18 1022.53
1017.83 1018.09 1018.15 1018.27 1018.37 1018.38 1018.53 1018.38 1018.04 1018.18 1017.51 1016.34 1016.38 1016.23 1015.97 1016.04 1016.49 1016.67 1016.67 1017.16 1017.59 1018.11 1018.58 1019.23 1018.91 1017.87 1018.06 1018.53 1018.79 1018.74 1018.88 1018.55 1017.93 1017.06 1017.26 1017.05 1017.17 1016.82 1017.03 1017.62 1018.80 1020.27 1021.57 1022.45 1023.16
1017.37 1017.61 1017.80 1017.99 1018.26 1018.26 1018.07 1017.81 1017.73 1017.78 1017.93 1016.32 1015.88 1015.80 1015.90 1016.11 1016.47 1016.77 1016.95 1017.25 1017.61 1018.20 1018.41 1018.40 1017.69 1017.49 1018.15 1018.35 1018.73 1018.76 1018.61 1018.48 1018.31 1017.70 1017.53 1017.67 1017.74 1017.28 1018.03 1018.99 1019.76 1021.19 1022.10 1022.72 1023.27
1016.89 1017.17 1017.47 1017.83 1018.63 1017.74 1017.84 1017.76 1017.74 1017.86 1017.96 1016.47 1015.87 1015.76 1015.80 1015.94 1016.80 1016.91 1017.04 1017.27 1017.65 1017.77 1018.26 1018.35 1017.49 1017.53 1017.86 1018.01 1018.22 1018.45 1017.75 1017.82 1018.29 1018.79 1018.61 1018.33 1018.31 1017.93 1018.14 1019.58 1020.79 1021.90 1022.85 1023.62 1023.80
1016.25 1016.66 1017.04 1017.44 1017.54 1017.63 1017.58 1017.69 1017.83 1018.10 1017.61 1016.04 1015.86 1015.77 1015.79 1016.26 1016.89 1017.19 1017.24 1017.20 1017.48 1017.69 1018.06 1017.56 1017.22 1017.22 1017.59 1017.41 1017.72 1017.90 1017.82 1018.19 1018.41 1019.09 1019.83 1019.58 1019.51 1017.87 1018.63 1020.10 1021.44 1022.66 1023.66 1024.52 1024.80
1015.64 1016.11 1016.60 1017.20 1017.58 1017.22 1017.28 1017.70 1018.10 1018.37 1016.71 1015.84 1015.82 1015.87 1016.16 1016.25 1016.82 1017.28 1017.38 1017.38 1017.49 1017.67 1017.64 1017.53 1017.07 1016.94 1016.90 1017.16 1017.56 1017.82 1018.59 1019.39 1020.03 1020.59 1020.68 1019.95 1020.15 1018.66 1019.10 1019.72 1021.43 1022.82 1023.74 1024.36 1024.94
1014.96 1015.51 1015.99 1016.02 1016.40 1016.67 1017.03 1017.75 1018.38 1017.41 1015.64 1015.73 1015.67 1015.92 1016.05 1016.52 1016.92 1017.28 1017.54 1017.62 1017.65 1017.99 1017.93 1017.32 1016.96 1016.56 1016.55 1016.98 1017.61 1017.91 1018.84 1020.37 1021.16 1021.64 1020.91 1020.20 1020.76 1018.87 1019.12 1019.66 1020.41 1022.15 1023.82 1024.49 1024.80
1014.19 1014.80 1015.05 1015.24 1015.64 1016.08 1016.86 1017.63 1016.72 1015.37 1015.09 1014.89 1015.13 1015.71 1015.97 1016.10 1016.70 1016.95 1017.50 1017.71 1017.22 1017.23 1017.69 1017.45 1017.06 1016.48 1016.24 1016.00 1016.30 1017.44 1018.15 1019.48 1020.79 1022.16 1021.36 1021.01 1020.49 1019.51 1020.27 1020.66 1021.24 1022.53 1023.37 1024.31 1024.70
1013.34 1013.81 1014.12 1014.80 1015.15 1015.89 1016.31 1016.32 1014.63 1014.41 1014.17 1014.65 1015.26 1015.83 1016.08 1015.77 1016.28 1016.91 1017.27 1017.32 1016.42 1016.26 1017.01 1017.23 1016.81 1016.26 1016.45 1016.30 1016.50 1017.49 1018.37 1018.82 1019.99 1021.59 1021.84 1020.33 1019.76 1020.21 1020.59 1021.41 1022.15 1023.07 1023.54 1024.24 1024.65
1012.55 1013.41 1013.59 1013.91 1014.56 1015.50 1015.75 1015.02 1014.49 1013.83 1013.52 1013.95 1014.46 1015.30 1015.75 1016.01 1016.37 1016.84 1016.67 1016.35 1016.27 1015.69 1015.72 1016.46 1017.17 1016.85 1016.71 1016.84 1017.33 1017.63 1018.32 1019.59 1020.80 1022.12 1021.95 1020.33 1019.95 1019.73 1020.68 1021.65 1022.45 1023.12 1023.70 1024.22 1024.60
1012.45 1013.66 1013.52 1013.54 1014.23 1014.70 1014.10 1014.35 1014.05 1013.32 1013.32 1013.87 1014.20 1014.84 1015.39 1015.64 1015.75 1016.27 1015.99 1015.48 1015.86 1015.82 1015.86 1016.16 1016.97 1017.97 1017.65 1017.07 1017.37 1018.16 1018.65 1019.38 1020.22 1020.97 1021.23 1021.05 1019.81 1018.76 1019.50 1020.31 1021.17 1022.32 1022.97 1023.41 1023.76
1012.02 1013.08 1013.34 1013.39 1013.90 1014.00 1013.80 1013.73 1013.59 1013.28 1013.45 1013.54 1013.86 1014.49 1014.96 1015.42 1015.49 1015.60 1015.62 1015.20 1015.15 1015.50 1016.27 1016.64 1017.36 1018.08 1018.42 1017.76 1017.26 1017.62 1018.38 1019.21 1020.28 1020.80 1020.68 1020.43 1019.32 1019.04 1019.42 1019.99 1020.86 1021.66 1022.23 1022.62 1022.94
1011.48 1013.19 1013.69 1013.32 1013.32 1013.77 1014.14 1013.76 1013.59 1013.73 1013.42 1013.71 1013.51 1014.02 1014.86 1015.44 1015.90 1015.40 1015.24 1015.24 1015.26 1015.67 1015.88 1016.63 1018.09 1018.96 1019.11 1019.44 1018.66 1018.43 1018.66 1019.60 1020.23 1020.85 1020.77 1021.22 1019.88 1019.84 1020.15 1020.62 1020.98 1021.38 1021.98 1022.36 1022.72
1011.84 1013.39 1013.94 1013.71 1013.34 1013.03 1013.70 1013.82 1013.82 1013.66 1013.63 1013.84 1013.85 1014.33 1014.70 1015.52 1015.07 1015.64 1015.95 1015.99 1016.02 1016.03 1016.21 1016.67 1017.69 1018.53 1018.85 1019.37 1019.33 1019.54 1019.38 1019.98 1020.98 1021.47 1021.13 1020.08 1020.33 1020.29 1020.77 1020.99 1021.37 1021.69 1021.85 1022.08 1022.30
1011.86 1012.57 1012.38 1013.24 1013.32 1013.27 1013.31 1013.52 1013.71 1013.71 1014.00 1013.92 1014.36 1014.63 1015.00 1015.89 1015.98 1016.07 1016.32 1016.71 1016.94 1017.00 1017.20 1017.60 1018.73 1019.56 1019.67 1020.05 1020.46 1020.04 1019.88 1020.29 1020.96 1020.96 1021.22 1019.88 1020.39 1019.62 1020.14 1020.87 1021.00 1021.06 1021.37 1021.74 1022.22
1012.78 1013.52 1013.17 1012.61 1012.77 1013.22 1013.28 1013.43 1013.70 1013.77 1014.01 1014.28 1014.42 1014.73 1015.27 1015.67 1016.05 1016.51 1016.89 1017.09 1017.25 1017.98 1018.14 1018.71 1019.77 1020.78 1021.39 1021.22 1021.51 1021.31 1020.24 1020.64 1020.78 1020.96 1020.99 1020.82 1020.26 1019.74 1020.04 1020.35 1020.83 1021.18 1021.44 1021.86 1022.22
1013.62 1013.61 1013.73 1012.85 1013.04 1013.22 1012.84 1013.26 1013.35 1013.63 1014.42 1014.64 1014.80 1015.42 1015.72 1015.78 1016.76 1017.61 1017.84 1017.79 1017.91 1018.39 1019.34 1020.17 1021.11 1022.70 1023.35 1023.34 1023.19 1022.47 1020.39 1019.96 1019.70 1020.15 1020.60 1021.05 1020.48 1020.81 1020.71 1020.80 1021.05 1021.41 1021.67 1022.03 1022.33
Wind_Speed
4 5 5 5 6 6 7 8 9 10 11 11 12 12 11 13 12 1 4 5 3 10 2 3 3 4 4 3 4 3 5 1 3 2 3 4 5 4 2 2 2 3 3 3 2
2 3 4 5 5 6 7 8 8 10 12 12 12 11 11 12 3 4 3 2 6 10 5 4 2 2 3 2 4 5 4 6 3 1 2 4 1 2 4 7 4 3 5 4 1
2 3 4 5 6 7 7 8 9 10 12 12 12 11 11 7 4 2 4 1 7 5 3 3 2 3 1 1 1 3 4 3 3 3 0 4 7 2 2 6 9 7 7 7 3
4 4 5 5 5 7 7 8 8 10 12 13 13 11 10 2 3 1 3 0 5 3 1 3 2 4 2 3 3 2 7 5 4 1 2 3 5 8 5 9 7 8 5 6 9
6 5 5 5 6 7 8 9 9 11 12 12 10 9 2 1 7 1 5 4 4 3 1 3 4 5 3 3 1 4 4 4 7 8 5 3 7 5 10 10 8 4 9 10 9
6 6 6 6 7 8 9 11 11 11 13 9 6 6 1 3 2 5 6 5 4 3 1 3 3 4 2 2 2 1 3 6 8 9 5 6 1 2 9 1 6 10 10 10 12
7 7 6 6 7 8 10 10 11 11 10 8 2 1 1 9 2 3 4 2 2 2 2 1 2 2 2 2 2 1 6 8 6 3 4 7 2 7 13 6 6 9 8 9 10
9 7 7 8 8 9 11 11 10 8 6 4 4 2 7 1 2 2 1 2 3 3 3 1 2 4 2 0 6 2 3 4 4 4 1 3 9 7 10 7 8 9 7 8 9
10 8 8 8 9 9 10 13 9 2 2 5 1 1 6 2 2 1 1 3 3 3 4 1 3 2 5 5 4 3 3 5 8 1 3 3 7 10 9 4 7 7 6 7 7
10 9 9 10 8 9 10 6 4 2 1 2 2 2 1 3 3 2 1 4 4 3 4 4 5 3 3 4 6 6 4 5 6 3 1 3 10 10 15 8 8 7 6 7 8
11 10 10 9 8 6 5 2 2 1 1 8 5 3 3 2 1 2 1 4 3 4 4 1 5 8 13 12 4 3 4 6 5 7 4 9 7 10 11 6 8 7 7 6 7
12 11 9 8 6 6 2 2 1 1 6 6 5 5 2 5 3 1 4 5 4 5 5 4 7 14 3 4 7 5 5 8 6 7 5 6 7 11 5 4 5 11 8 7 5
12 10 9 6 6 3 4 3 2 2 1 7 3 3 3 6 3 6 7 4 4 7 8 9 8 5 6 4 6 4 7 4 8 4 4 3 7 8 4 7 11 9 7 7 6
13 11 10 4 1 3 2 5 4 2 2 6 3 1 2 4 1 0 1 3 2 10 6 6 7 5 5 5 5 5 8 8 5 3 5 2 7 6 4 5 5 6 6 6 6
13 13 11 11 1 3 4 6 4 3 5 2 3 1 2 6 5 1 1 1 4 5 6 7 2 3 6 9 7 8 3 3 1 3 1 4 2 7 5 3 5 5 6 5 5
14 14 12 5 1 2 7 6 2 3 9 3 4 5 4 3 3 3 2 2 1 2 2 7 2 4 6 1 2 3 4 7 5 3 2 8 8 2 4 4 6 6 7 7 7
17 16 12 7 5 10 7 3 2 6 1 5 6 5 5 5 4 4 5 5 6 5 5 2 5 4 4 5 2 4 6 3 5 2 7 3 2 7 4 2 10 16 9 7 7
18 19 9 4 5 9 4 3 10 9 7 3 4 5 7 8 5 6 5 3 6 1 3 6 5 9 6 9 10 8 9 8 8 4 6 1 7 4 3 6 11 11 9 7 7
21 8 7 6 9 5 5 8 7 6 7 9 3 4 5 4 5 4 6 5 8 12 9 5 6 2 0 0 5 4 4 2 5 2 2 6 3 3 5 6 8 8 8 8 6
5 3 4 12 10 6 6 9 6 5 5 4 11 8 9 6 7 7 8 4 4 7 2 4 4 2 1 2 4 2 4 3 3 2 5 5 5 6 8 8 8 8 8 7 6
3 4 3 9 5 3 9 7 6 5 6 6 7 5 7 8 8 7 6 3 6 5 4 5 6 2 4 6 9 2 3 2 3 5 6 2 7 3 7 11 14 9 9 10 10
5 3 3 5 5 2 8 7 6 6 4 4 5 5 8 7 6 7 9 7 8 8 8 4 5 4 8 2 2 1 5 6 6 6 4 3 10 1 5 7 9 10 11 10 10
4 4 2 2 8 5 2 5 3 6 6 7 8 7 4 7 3 7 6 3 7 9 10 8 2 2 5 5 2 4 4 2 3 3 5 4 8 2 1 5 7 10 9 9 9
5 6 3 3 1 6 8 6 7 5 3 4 3 5 6 8 6 4 4 2 2 2 2 6 6 8 12 6 3 4 4 3 4 3 3 8 6 7 7 7 6 7 8 9 9
2 3 4 8 8 3 9 5 11 7 8 7 3 7 10 6 4 7 5 3 3 1 1 4 6 5 3 4 4 4 9 6 9 8 8 17 11 16 5 8 8 8 6 5 7
4 2 1 2 7 13 9 10 9 14 7 9 12 9 7 12 9 7 8 6 6 2 3 2 2 2 4 4 6 6 11 5 12 14 11 15 19 14 7 3 3 6 4 4 6
1 2 4 6 5 8 8 12 12 8 0 3 9 7 8 12 5 3 3 4 5 8 6 6 6 4 6 3 4 9 9 17 14 10 9 12 13 2 5 7 5 5 3 4 4
Wind_Direction
42 27 16 14 9 2 354 350 348 343 340 336 338 335 333 333 321 154 251 227 191 160 140 101 33 3 33 18 22 85 57 236 240 57 294 332 23 339 318 344 311 295 182 251 28
7 357 348 346 349 346 342 336 335 332 331 330 330 328 327 334 316 258 270 144 131 150 101 124 119 70 24 1 6 81 108 225 218 139 301 293 110 314 351 325 294 264 314 282 235
292 314 323 331 335 333 331 329 324 321 325 323 322 322 319 324 334 262 345 296 161 154 93 149 108 142 77 102 208 154 195 230 221 192 299 291 318 359 70 306 261 274 281 309 267
265 284 300 312 318 320 321 318 315 311 317 319 318 319 316 261 287 34 330 155 159 142 39 153 116 122 156 203 191 147 245 224 269 352 44 285 313 320 203 236 267 296 286 298 353
256 264 277 291 302 312 315 313 312 310 313 314 316 324 308 307 254 85 110 106 110 114 161 160 142 158 191 204 283 188 257 283 277 279 241 238 262 237 272 262 286 352 60 55 44
249 261 273 289 301 308 311 312 313 311 314 310 316 327 200 226 124 140 121 117 140 138 172 158 186 197 202 246 172 176 258 261 272 267 243 220 352 147 277 199 333 48 70 50 44
235 249 262 276 285 293 298 300 305 312 314 306 278 280 178 243 49 144 127 138 124 138 145 69 208 147 120 313 274 264 314 327 270 276 217 151 280 225 248 315 62 70 78 64 46
232 233 243 261 278 290 293 297 299 306 318 340 155 143 237 345 324 108 100 59 89 70 106 24 94 122 162 131 3 352 32 346 289 142 122 121 267 258 274 279 58 105 91 79 58
226 226 237 255 270 285 302 300 290 232 41 121 63 130 266 331 121 96 54 130 75 43 36 68 70 138 42 93 357 349 212 207 310 263 130 134 247 275 291 42 81 116 93 73 47
221 225 234 247 268 301 316 330 98 126 233 246 252 354 239 212 135 102 29 121 100 81 40 60 51 95 55 112 220 208 214 234 224 269 85 225 248 269 284 97 141 125 96 77 70
221 225 235 255 275 316 355 347 354 333 194 193 196 222 135 70 61 53 123 100 89 65 148 11 102 209 207 204 172 186 193 222 252 251 189 243 241 259 261 116 144 145 118 95 76
215 225 231 254 290 318 147 233 211 157 307 236 234 273 130 188 119 203 126 136 145 181 124 55 216 230 190 171 220 256 256 258 280 269 168 274 275 266 300 273 180 143 121 108 85
211 210 209 237 300 303 202 186 132 120 165 294 199 176 184 153 206 193 147 153 161 172 195 172 219 167 177 211 205 217 210 225 237 312 280 324 301 270 63 67 75 72 101 103 107
205 197 199 166 288 199 214 163 116 112 43 257 211 203 99 124 167 116 188 164 217 205 177 230 261 213 165 217 161 260 217 208 222 133 230 104 274 287 178 117 94 111 98 100 100
198 190 196 167 232 167 158 133 118 62 292 243 160 181 138 147 142 18 0 79 199 189 128 240 215 169 223 229 159 234 162 180 133 153 14 298 293 248 121 169 166 139 118 110 89
196 188 174 174 171 206 136 123 69 71 244 200 136 173 130 150 156 132 137 47 150 199 190 228 282 168 202 104 177 123 67 33 42 73 295 222 190 249 177 228 144 140 136 126 112
196 188 169 156 200 155 146 121 118 216 295 199 187 171 177 169 171 167 161 177 164 134 220 238 213 204 171 146 70 114 91 326 334 346 232 184 184 250 294 307 179 150 138 134 133
195 180 183 174 153 141 140 102 210 185 205 163 146 144 180 158 219 174 139 227 232 228 128 188 285 183 192 198 181 181 163 168 210 210 250 347 244 264 2 44 101 125 138 144 143
182 175 167 168 146 121 155 205 201 190 174 157 68 159 231 208 162 138 195 218 215 178 181 186 270 88 208 192 138 191 191 188 111 95 73 213 267 166 95 81 105 132 145 159 156
145 136 167 152 138 156 180 226 211 209 137 134 170 172 187 216 168 170 185 204 233 180 139 199 293 213 178 74 29 121 155 69 360 209 249 273 256 222 198 173 170 177 172 171 161
84 134 208 145 137 172 199 198 202 222 157 162 189 163 204 182 186 192 212 207 193 162 140 150 147 243 134 190 179 146 217 205 162 159 190 232 259 247 173 182 187 184 187 183 190
130 140 193 155 157 178 192 173 191 189 190 174 135 174 188 198 189 202 206 206 172 160 164 191 150 194 213 315 359 177 200 174 188 245 242 189 251 284 163 167 162 188 192 203 205
101 101 301 67 188 186 153 189 207 198 187 196 184 181 182 188 239 210 199 232 180 158 169 176 192 1 333 339 34 204 191 139 75 65 221 213 250 294 132 151 200 188 203 208 207
125 130 147 244 69 180 171 190 200 214 246 222 193 137 144 206 209 203 212 259 25 194 146 148 171 181 238 197 152 195 181 152 166 177 215 235 297 230 218 220 222 231 227 227 210
82 172 190 178 189 170 171 173 201 194 213 204 232 201 185 219 193 215 170 119 24 98 107 165 199 190 207 149 182 215 238 182 202 217 218 267 246 262 247 207 226 224 229 216 179
118 154 290 135 144 186 167 197 188 203 160 223 220 202 187 218 189 205 177 181 186 195 174 33 250 83 297 196 195 242 253 225 245 260 260 261 271 273 298 180 190 223 234 216 210
66 23 306 153 147 173 197 210 203 137 337 227 228 190 206 227 119 75 54 86 138 150 176 166 138 111 264 2 50 308 231 231 241 215 216 230 244 218 244 229 217 211 173 202 206